Year,Month,Day,Hour,Minute,Value (Times are PST for temperature in C)
2010,02,25,00,00,4.00
2010,02,25,00,01,3.90
2010,02,25,00,02,3.90
2010,02,25,00,03,3.90
2010,02,25,00,04,3.90
2010,02,25,00,05,3.80
2010,02,25,00,06,3.80
2010,02,25,00,07,3.80
2010,02,25,00,08,3.70
2010,02,25,00,09,3.70
2010,02,25,00,10,3.70
2010,02,25,00,11,3.70
2010,02,25,00,12,3.70
2010,02,25,00,13,3.70
2010,02,25,00,14,3.70
2010,02,25,00,15,3.60
2010,02,25,00,16,3.60
2010,02,25,00,17,3.50
2010,02,25,00,18,3.50
2010,02,25,00,19,3.40
2010,02,25,00,20,3.40
2010,02,25,00,21,3.40
2010,02,25,00,22,3.40
2010,02,25,00,23,3.40
2010,02,25,00,24,3.40
2010,02,25,00,25,3.40
2010,02,25,00,26,3.40
2010,02,25,00,27,3.40
2010,02,25,00,28,3.40
2010,02,25,00,29,3.30
2010,02,25,00,30,3.30
2010,02,25,00,31,3.30
2010,02,25,00,32,3.40
2010,02,25,00,33,3.40
2010,02,25,00,34,3.40
2010,02,25,00,35,3.40
2010,02,25,00,36,3.40
2010,02,25,00,37,3.30
2010,02,25,00,38,3.30
2010,02,25,00,39,3.30
2010,02,25,00,40,3.20
2010,02,25,00,41,3.20
2010,02,25,00,42,3.20
2010,02,25,00,43,3.20
2010,02,25,00,44,3.30
2010,02,25,00,45,3.30
2010,02,25,00,46,3.40
2010,02,25,00,47,3.50
2010,02,25,00,48,3.50
2010,02,25,00,49,3.60
2010,02,25,00,50,3.60
2010,02,25,00,51,3.70
2010,02,25,00,52,3.70
2010,02,25,00,53,3.70
2010,02,25,00,54,3.70
2010,02,25,00,55,3.70
2010,02,25,00,56,3.70
2010,02,25,00,57,3.70
2010,02,25,00,58,3.70
2010,02,25,00,59,3.70
2010,02,25,01,00,3.70
2010,02,25,01,01,3.70
2010,02,25,01,02,3.60
2010,02,25,01,03,3.60
2010,02,25,01,04,3.60
2010,02,25,01,05,3.60
2010,02,25,01,06,3.60
2010,02,25,01,07,3.60
2010,02,25,01,08,3.60
2010,02,25,01,09,3.60
2010,02,25,01,10,3.60
2010,02,25,01,11,3.60
2010,02,25,01,12,3.60
2010,02,25,01,13,3.60
2010,02,25,01,14,3.50
2010,02,25,01,15,3.50
2010,02,25,01,16,3.50
2010,02,25,01,17,3.50
2010,02,25,01,18,3.40
2010,02,25,01,19,3.40
2010,02,25,01,20,3.40
2010,02,25,01,21,3.40
2010,02,25,01,22,3.30
2010,02,25,01,23,3.30
2010,02,25,01,24,3.30
2010,02,25,01,25,3.30
2010,02,25,01,26,3.30
2010,02,25,01,27,3.40
2010,02,25,01,28,3.40
2010,02,25,01,29,3.40
2010,02,25,01,30,3.40
2010,02,25,01,31,3.40
2010,02,25,01,32,3.30
2010,02,25,01,33,3.30
2010,02,25,01,34,3.30
2010,02,25,01,35,3.30
2010,02,25,01,36,3.30
2010,02,25,01,37,3.30
2010,02,25,01,38,3.30
2010,02,25,01,39,3.30
2010,02,25,01,40,3.30
2010,02,25,01,41,3.30
2010,02,25,01,42,3.20
2010,02,25,01,43,3.20
2010,02,25,01,44,3.20
2010,02,25,01,45,3.20
2010,02,25,01,46,3.20
2010,02,25,01,47,3.20
2010,02,25,01,48,3.20
2010,02,25,01,49,3.30
2010,02,25,01,50,3.30
2010,02,25,01,51,3.40
2010,02,25,01,52,3.40
2010,02,25,01,53,3.40
2010,02,25,01,54,3.50
2010,02,25,01,55,3.60
2010,02,25,01,56,3.60
2010,02,25,01,57,3.60
2010,02,25,01,58,3.70
2010,02,25,01,59,3.70
2010,02,25,02,00,3.70
2010,02,25,02,01,3.60
2010,02,25,02,02,3.60
2010,02,25,02,03,3.60
2010,02,25,02,04,3.60
2010,02,25,02,05,3.50
2010,02,25,02,06,3.50
2010,02,25,02,07,3.40
2010,02,25,02,08,3.40
2010,02,25,02,09,3.40
2010,02,25,02,10,3.40
2010,02,25,02,11,3.40
2010,02,25,02,12,3.50
2010,02,25,02,13,3.50
2010,02,25,02,14,3.50
2010,02,25,02,15,3.50
2010,02,25,02,16,3.50
2010,02,25,02,17,3.60
2010,02,25,02,18,3.60
2010,02,25,02,19,3.60
2010,02,25,02,20,3.60
2010,02,25,02,21,3.50
2010,02,25,02,22,3.50
2010,02,25,02,23,3.50
2010,02,25,02,24,3.50
2010,02,25,02,25,3.50
2010,02,25,02,26,3.50
2010,02,25,02,27,3.50
2010,02,25,02,28,3.50
2010,02,25,02,29,3.50
2010,02,25,02,30,3.50
2010,02,25,02,31,3.50
2010,02,25,02,32,3.50
2010,02,25,02,33,3.50
2010,02,25,02,34,3.50
2010,02,25,02,35,3.50
2010,02,25,02,36,3.50
2010,02,25,02,37,3.50
2010,02,25,02,38,3.50
2010,02,25,02,39,3.50
2010,02,25,02,40,3.50
2010,02,25,02,41,3.40
2010,02,25,02,42,3.40
2010,02,25,02,43,3.40
2010,02,25,02,44,3.50
2010,02,25,02,45,3.50
2010,02,25,02,46,3.50
2010,02,25,02,47,3.60
2010,02,25,02,48,3.60
2010,02,25,02,49,3.60
2010,02,25,02,50,3.60
2010,02,25,02,51,3.60
2010,02,25,02,52,3.60
2010,02,25,02,53,3.60
2010,02,25,02,54,3.60
2010,02,25,02,55,3.60
2010,02,25,02,56,3.60
2010,02,25,02,57,3.60
2010,02,25,02,58,3.60
2010,02,25,02,59,3.60
2010,02,25,03,00,3.60
2010,02,25,03,01,3.60
2010,02,25,03,02,3.60
2010,02,25,03,03,3.60
2010,02,25,03,04,3.60
2010,02,25,03,05,3.60
2010,02,25,03,06,3.60
2010,02,25,03,07,3.60
2010,02,25,03,08,3.60
2010,02,25,03,09,3.60
2010,02,25,03,10,3.50
2010,02,25,03,11,3.50
2010,02,25,03,12,3.40
2010,02,25,03,13,3.40
2010,02,25,03,14,3.40
2010,02,25,03,15,3.40
2010,02,25,03,16,3.50
2010,02,25,03,17,3.50
2010,02,25,03,18,3.50
2010,02,25,03,19,3.50
2010,02,25,03,20,3.50
2010,02,25,03,21,3.50
2010,02,25,03,22,3.50
2010,02,25,03,23,3.40
2010,02,25,03,24,3.40
2010,02,25,03,25,3.30
2010,02,25,03,26,3.40
2010,02,25,03,27,3.40
2010,02,25,03,28,3.40
2010,02,25,03,29,3.40
2010,02,25,03,30,3.40
2010,02,25,03,31,3.40
2010,02,25,03,32,3.40
2010,02,25,03,33,3.40
2010,02,25,03,34,3.40
2010,02,25,03,35,3.40
2010,02,25,03,36,3.40
2010,02,25,03,37,3.40
2010,02,25,03,38,3.40
2010,02,25,03,39,3.40
2010,02,25,03,40,3.30
2010,02,25,03,41,3.30
2010,02,25,03,42,3.30
2010,02,25,03,43,3.30
2010,02,25,03,44,3.30
2010,02,25,03,45,3.30
2010,02,25,03,46,3.40
2010,02,25,03,47,3.30
2010,02,25,03,48,3.40
2010,02,25,03,49,3.30
2010,02,25,03,50,3.30
2010,02,25,03,51,3.30
2010,02,25,03,52,3.30
2010,02,25,03,53,3.30
2010,02,25,03,54,3.30
2010,02,25,03,55,3.30
2010,02,25,03,56,3.30
2010,02,25,03,57,3.30
2010,02,25,03,58,3.30
2010,02,25,03,59,3.30
2010,02,25,04,00,3.30
2010,02,25,04,01,3.30
2010,02,25,04,02,3.30
2010,02,25,04,03,3.30
2010,02,25,04,04,3.40
2010,02,25,04,05,3.40
2010,02,25,04,06,3.30
2010,02,25,04,07,3.30
2010,02,25,04,08,3.30
2010,02,25,04,09,3.30
2010,02,25,04,10,3.30
2010,02,25,04,11,3.20
2010,02,25,04,12,3.20
2010,02,25,04,13,3.20
2010,02,25,04,14,3.20
2010,02,25,04,15,3.10
2010,02,25,04,16,3.10
2010,02,25,04,17,3.10
2010,02,25,04,18,3.10
2010,02,25,04,19,3.10
2010,02,25,04,20,3.10
2010,02,25,04,21,3.10
2010,02,25,04,22,3.20
2010,02,25,04,23,3.20
2010,02,25,04,24,3.20
2010,02,25,04,25,3.20
2010,02,25,04,26,3.10
2010,02,25,04,27,3.10
2010,02,25,04,28,3.10
2010,02,25,04,29,3.10
2010,02,25,04,30,3.10
2010,02,25,04,31,3.10
2010,02,25,04,32,3.10
2010,02,25,04,33,3.10
2010,02,25,04,34,3.10
2010,02,25,04,35,3.10
2010,02,25,04,36,3.10
2010,02,25,04,37,3.10
2010,02,25,04,38,3.10
2010,02,25,04,39,3.10
2010,02,25,04,40,3.20
2010,02,25,04,41,3.20
2010,02,25,04,42,3.20
2010,02,25,04,43,3.20
2010,02,25,04,44,3.20
2010,02,25,04,45,3.20
2010,02,25,04,46,3.20
2010,02,25,04,47,3.20
2010,02,25,04,48,3.20
2010,02,25,04,49,3.20
2010,02,25,04,50,3.20
2010,02,25,04,51,3.20
2010,02,25,04,52,3.30
2010,02,25,04,53,3.30
2010,02,25,04,54,3.30
2010,02,25,04,55,3.30
2010,02,25,04,56,3.30
2010,02,25,04,57,3.30
2010,02,25,04,58,3.30
2010,02,25,04,59,3.30
2010,02,25,05,00,3.30
2010,02,25,05,01,3.30
2010,02,25,05,02,3.30
2010,02,25,05,03,3.30
2010,02,25,05,04,3.30
2010,02,25,05,05,3.20
2010,02,25,05,06,3.20
2010,02,25,05,07,3.20
2010,02,25,05,08,3.20
2010,02,25,05,09,3.10
2010,02,25,05,10,3.20
2010,02,25,05,11,3.20
2010,02,25,05,12,3.20
2010,02,25,05,13,3.20
2010,02,25,05,14,3.20
2010,02,25,05,15,3.20
2010,02,25,05,16,3.20
2010,02,25,05,17,3.30
2010,02,25,05,18,3.30
2010,02,25,05,19,3.30
2010,02,25,05,20,3.30
2010,02,25,05,21,3.30
2010,02,25,05,22,3.30
2010,02,25,05,23,3.30
2010,02,25,05,24,3.30
2010,02,25,05,25,3.30
2010,02,25,05,26,3.30
2010,02,25,05,27,3.40
2010,02,25,05,28,3.50
2010,02,25,05,29,3.60
2010,02,25,05,30,3.60
2010,02,25,05,31,3.70
2010,02,25,05,32,3.60
2010,02,25,05,33,3.60
2010,02,25,05,34,3.60
2010,02,25,05,35,3.60
2010,02,25,05,36,3.60
2010,02,25,05,37,3.60
2010,02,25,05,38,3.60
2010,02,25,05,39,3.60
2010,02,25,05,40,3.60
2010,02,25,05,41,3.50
2010,02,25,05,42,3.60
2010,02,25,05,43,3.60
2010,02,25,05,44,3.60
2010,02,25,05,45,3.60
2010,02,25,05,46,3.60
2010,02,25,05,47,3.60
2010,02,25,05,48,3.60
2010,02,25,05,49,3.60
2010,02,25,05,50,3.50
2010,02,25,05,51,3.50
2010,02,25,05,52,3.50
2010,02,25,05,53,3.50
2010,02,25,05,54,3.50
2010,02,25,05,55,3.50
2010,02,25,05,56,3.50
2010,02,25,05,57,3.50
2010,02,25,05,58,3.50
2010,02,25,05,59,3.50
2010,02,25,06,00,3.50
2010,02,25,06,01,3.50
2010,02,25,06,02,3.40
2010,02,25,06,03,3.40
2010,02,25,06,04,3.40
2010,02,25,06,05,3.40
2010,02,25,06,06,3.40
2010,02,25,06,07,3.40
2010,02,25,06,08,3.40
2010,02,25,06,09,3.40
2010,02,25,06,10,3.40
2010,02,25,06,11,3.40
2010,02,25,06,12,3.40
2010,02,25,06,13,3.40
2010,02,25,06,14,3.40
2010,02,25,06,15,3.30
2010,02,25,06,16,3.40
2010,02,25,06,17,3.40
2010,02,25,06,18,3.40
2010,02,25,06,19,3.40
2010,02,25,06,20,3.40
2010,02,25,06,21,3.40
2010,02,25,06,22,3.40
2010,02,25,06,23,3.30
2010,02,25,06,24,3.30
2010,02,25,06,25,3.30
2010,02,25,06,26,3.20
2010,02,25,06,27,3.20
2010,02,25,06,28,3.20
2010,02,25,06,29,3.20
2010,02,25,06,30,3.30
2010,02,25,06,31,3.30
2010,02,25,06,32,3.20
2010,02,25,06,33,3.20
2010,02,25,06,34,3.10
2010,02,25,06,35,3.20
2010,02,25,06,36,3.20
2010,02,25,06,37,3.30
2010,02,25,06,38,3.30
2010,02,25,06,39,3.30
2010,02,25,06,40,3.30
2010,02,25,06,41,3.30
2010,02,25,06,42,3.40
2010,02,25,06,43,3.40
2010,02,25,06,44,3.30
2010,02,25,06,45,3.20
2010,02,25,06,46,3.20
2010,02,25,06,47,3.20
2010,02,25,06,48,3.30
2010,02,25,06,49,3.30
2010,02,25,06,50,3.40
2010,02,25,06,51,3.40
2010,02,25,06,52,3.40
2010,02,25,06,53,3.50
2010,02,25,06,54,3.50
2010,02,25,06,55,3.60
2010,02,25,06,56,3.70
2010,02,25,06,57,3.70
2010,02,25,06,58,3.70
2010,02,25,06,59,3.80
2010,02,25,07,00,3.80
2010,02,25,07,01,3.80
2010,02,25,07,02,3.80
2010,02,25,07,03,3.80
2010,02,25,07,04,3.80
2010,02,25,07,05,3.80
2010,02,25,07,06,3.80
2010,02,25,07,07,3.80
2010,02,25,07,08,3.80
2010,02,25,07,09,3.70
2010,02,25,07,10,3.70
2010,02,25,07,11,3.70
2010,02,25,07,12,3.70
2010,02,25,07,13,3.70
2010,02,25,07,14,3.70
2010,02,25,07,15,3.70
2010,02,25,07,16,3.70
2010,02,25,07,17,3.70
2010,02,25,07,18,3.70
2010,02,25,07,19,3.60
2010,02,25,07,20,3.60
2010,02,25,07,21,3.60
2010,02,25,07,22,3.50
2010,02,25,07,23,3.50
2010,02,25,07,24,3.40
2010,02,25,07,25,3.40
2010,02,25,07,26,3.40
2010,02,25,07,27,3.30
2010,02,25,07,28,3.30
2010,02,25,07,29,3.30
2010,02,25,07,30,3.30
2010,02,25,07,31,3.30
2010,02,25,07,32,3.30
2010,02,25,07,33,3.30
2010,02,25,07,34,3.30
2010,02,25,07,35,3.30
2010,02,25,07,36,3.30
2010,02,25,07,37,3.30
2010,02,25,07,38,3.30
2010,02,25,07,39,3.20
2010,02,25,07,40,3.20
2010,02,25,07,41,3.30
2010,02,25,07,42,3.30
2010,02,25,07,43,3.30
2010,02,25,07,44,3.40
2010,02,25,07,45,3.60
2010,02,25,07,46,3.70
2010,02,25,07,47,3.80
2010,02,25,07,48,4.00
2010,02,25,07,49,4.10
2010,02,25,07,50,4.30
2010,02,25,07,51,4.40
2010,02,25,07,52,4.60
2010,02,25,07,53,4.70
2010,02,25,07,54,4.90
2010,02,25,07,55,5.00
2010,02,25,07,56,5.10
2010,02,25,07,57,5.20
2010,02,25,07,58,5.20
2010,02,25,07,59,5.30
2010,02,25,08,00,5.30
2010,02,25,08,01,5.30
2010,02,25,08,02,5.30
2010,02,25,08,03,5.40
2010,02,25,08,04,5.50
2010,02,25,08,05,5.50
2010,02,25,08,06,5.60
2010,02,25,08,07,5.60
2010,02,25,08,08,5.60
2010,02,25,08,09,5.70
2010,02,25,08,10,5.60
2010,02,25,08,11,5.60
2010,02,25,08,12,5.50
2010,02,25,08,13,5.50
2010,02,25,08,14,5.40
2010,02,25,08,15,5.40
2010,02,25,08,16,5.30
2010,02,25,08,17,5.30
2010,02,25,08,18,5.30
2010,02,25,08,19,5.30
2010,02,25,08,20,5.30
2010,02,25,08,21,5.30
2010,02,25,08,22,5.40
2010,02,25,08,23,5.50
2010,02,25,08,24,5.50
2010,02,25,08,25,5.60
2010,02,25,08,26,5.70
2010,02,25,08,27,5.90
2010,02,25,08,28,6.00
2010,02,25,08,29,6.10
2010,02,25,08,30,6.20
2010,02,25,08,31,6.30
2010,02,25,08,32,6.30
2010,02,25,08,33,6.40
2010,02,25,08,34,6.40
2010,02,25,08,35,6.40
2010,02,25,08,36,6.50
2010,02,25,08,37,6.50
2010,02,25,08,38,6.50
2010,02,25,08,39,6.50
2010,02,25,08,40,6.50
2010,02,25,08,41,6.60
2010,02,25,08,42,6.60
2010,02,25,08,43,6.70
2010,02,25,08,44,6.70
2010,02,25,08,45,6.80
2010,02,25,08,46,6.90
2010,02,25,08,47,7.00
2010,02,25,08,48,7.00
2010,02,25,08,49,7.10
2010,02,25,08,50,7.20
2010,02,25,08,51,7.20
2010,02,25,08,52,7.30
2010,02,25,08,53,7.30
2010,02,25,08,54,7.30
2010,02,25,08,55,7.30
2010,02,25,08,56,7.20
2010,02,25,08,57,7.20
2010,02,25,08,58,7.20
2010,02,25,08,59,7.20
2010,02,25,09,00,7.10
2010,02,25,09,01,7.10
2010,02,25,09,02,7.10
2010,02,25,09,03,7.10
2010,02,25,09,04,7.10
2010,02,25,09,05,7.10
2010,02,25,09,06,7.10
2010,02,25,09,07,7.10
2010,02,25,09,08,7.10
2010,02,25,09,09,7.10
2010,02,25,09,10,7.10
2010,02,25,09,11,7.10
2010,02,25,09,12,7.10
2010,02,25,09,13,7.10
2010,02,25,09,14,7.20
2010,02,25,09,15,7.20
2010,02,25,09,16,7.30
2010,02,25,09,17,7.30
2010,02,25,09,18,7.40
2010,02,25,09,19,7.40
2010,02,25,09,20,7.40
2010,02,25,09,21,7.40
2010,02,25,09,22,7.40
2010,02,25,09,23,7.40
2010,02,25,09,24,7.40
2010,02,25,09,25,7.40
2010,02,25,09,26,7.40
2010,02,25,09,27,7.40
2010,02,25,09,28,7.40
2010,02,25,09,29,7.50
2010,02,25,09,30,7.50
2010,02,25,09,31,7.60
2010,02,25,09,32,7.60
2010,02,25,09,33,7.70
2010,02,25,09,34,7.70
2010,02,25,09,35,7.80
2010,02,25,09,36,7.80
2010,02,25,09,37,7.90
2010,02,25,09,38,7.90
2010,02,25,09,39,7.90
2010,02,25,09,40,8.00
2010,02,25,09,41,8.00
2010,02,25,09,42,8.00
2010,02,25,09,43,8.10
2010,02,25,09,44,8.10
2010,02,25,09,45,8.10
2010,02,25,09,46,8.10
2010,02,25,09,47,8.20
2010,02,25,09,48,8.20
2010,02,25,09,49,8.20
2010,02,25,09,50,8.30
2010,02,25,09,51,8.30
2010,02,25,09,52,8.30
2010,02,25,09,53,8.30
2010,02,25,09,54,8.30
2010,02,25,09,55,8.30
2010,02,25,09,56,8.40
2010,02,25,09,57,8.40
2010,02,25,09,58,8.50
2010,02,25,09,59,8.50
2010,02,25,10,00,8.60
2010,02,25,10,01,8.60
2010,02,25,10,02,8.70
2010,02,25,10,03,8.70
2010,02,25,10,04,8.80
2010,02,25,10,05,8.80
2010,02,25,10,06,8.90
2010,02,25,10,07,8.90
2010,02,25,10,08,8.90
2010,02,25,10,09,8.90
2010,02,25,10,10,8.90
2010,02,25,10,11,8.90
2010,02,25,10,12,8.90
2010,02,25,10,13,8.80
2010,02,25,10,14,8.80
2010,02,25,10,15,8.70
2010,02,25,10,16,8.70
2010,02,25,10,17,8.60
2010,02,25,10,18,8.60
2010,02,25,10,19,8.60
2010,02,25,10,20,8.60
2010,02,25,10,21,8.60
2010,02,25,10,22,8.60
2010,02,25,10,23,8.60
2010,02,25,10,24,8.60
2010,02,25,10,25,8.70
2010,02,25,10,26,8.70
2010,02,25,10,27,8.70
2010,02,25,10,28,8.70
2010,02,25,10,29,8.80
2010,02,25,10,30,8.80
2010,02,25,10,31,8.80
2010,02,25,10,32,8.80
2010,02,25,10,33,8.90
2010,02,25,10,34,8.90
2010,02,25,10,35,8.90
2010,02,25,10,36,8.90
2010,02,25,10,37,8.80
2010,02,25,10,38,8.80
2010,02,25,10,39,8.80
2010,02,25,10,40,8.80
2010,02,25,10,41,8.80
2010,02,25,10,42,8.80
2010,02,25,10,43,8.80
2010,02,25,10,44,8.80
2010,02,25,10,45,8.80
2010,02,25,10,46,8.90
2010,02,25,10,47,8.90
2010,02,25,10,48,8.90
2010,02,25,10,49,9.00
2010,02,25,10,50,9.00
2010,02,25,10,51,9.10
2010,02,25,10,52,9.10
2010,02,25,10,53,9.20
2010,02,25,10,54,9.20
2010,02,25,10,55,9.20
2010,02,25,10,56,9.20
2010,02,25,10,57,9.30
2010,02,25,10,58,9.30
2010,02,25,10,59,9.30
2010,02,25,11,00,9.30
2010,02,25,11,01,9.30
2010,02,25,11,02,9.30
2010,02,25,11,03,9.30
2010,02,25,11,04,9.30
2010,02,25,11,05,9.30
2010,02,25,11,06,9.40
2010,02,25,11,07,9.40
2010,02,25,11,08,9.40
2010,02,25,11,09,9.50
2010,02,25,11,10,9.50
2010,02,25,11,11,9.60
2010,02,25,11,12,9.60
2010,02,25,11,13,9.60
2010,02,25,11,14,9.70
2010,02,25,11,15,9.70
2010,02,25,11,16,9.70
2010,02,25,11,17,9.70
2010,02,25,11,18,9.70
2010,02,25,11,19,9.70
2010,02,25,11,20,9.80
2010,02,25,11,21,9.80
2010,02,25,11,22,9.80
2010,02,25,11,23,9.80
2010,02,25,11,24,9.70
2010,02,25,11,25,9.70
2010,02,25,11,26,9.70
2010,02,25,11,27,9.70
2010,02,25,11,28,9.70
2010,02,25,11,29,9.70
2010,02,25,11,30,9.70
2010,02,25,11,31,9.70
2010,02,25,11,32,9.70
2010,02,25,11,33,9.70
2010,02,25,11,34,9.70
2010,02,25,11,35,9.80
2010,02,25,11,36,9.80
2010,02,25,11,37,9.80
2010,02,25,11,38,9.80
2010,02,25,11,39,9.80
2010,02,25,11,40,9.80
2010,02,25,11,41,9.80
2010,02,25,11,42,9.70
2010,02,25,11,43,9.70
2010,02,25,11,44,9.70
2010,02,25,11,45,9.70
2010,02,25,11,46,9.70
2010,02,25,11,47,9.60
2010,02,25,11,48,9.60
2010,02,25,11,49,9.60
2010,02,25,11,50,9.70
2010,02,25,11,51,9.70
2010,02,25,11,52,9.70
2010,02,25,11,53,9.80
2010,02,25,11,54,9.80
2010,02,25,11,55,9.90
2010,02,25,11,56,9.90
2010,02,25,11,57,10.00
2010,02,25,11,58,10.00
2010,02,25,11,59,10.00
2010,02,25,12,00,10.10
2010,02,25,12,01,10.10
2010,02,25,12,02,10.20
2010,02,25,12,03,10.20
2010,02,25,12,04,10.20
2010,02,25,12,05,10.20
2010,02,25,12,06,10.10
2010,02,25,12,07,10.10
2010,02,25,12,08,10.00
2010,02,25,12,09,10.00
2010,02,25,12,10,9.90
2010,02,25,12,11,9.90
2010,02,25,12,12,9.80
2010,02,25,12,13,9.80
2010,02,25,12,14,9.80
2010,02,25,12,15,9.80
2010,02,25,12,16,9.80
2010,02,25,12,17,9.80
2010,02,25,12,18,9.80
2010,02,25,12,19,9.80
2010,02,25,12,20,9.80
2010,02,25,12,21,9.90
2010,02,25,12,22,9.90
2010,02,25,12,23,9.90
2010,02,25,12,24,10.00
2010,02,25,12,25,10.00
2010,02,25,12,26,10.10
2010,02,25,12,27,10.10
2010,02,25,12,28,10.20
2010,02,25,12,29,10.20
2010,02,25,12,30,10.20
2010,02,25,12,31,10.30
2010,02,25,12,32,10.30
2010,02,25,12,33,10.30
2010,02,25,12,34,10.30
2010,02,25,12,35,10.30
2010,02,25,12,36,10.30
2010,02,25,12,37,10.40
2010,02,25,12,38,10.40
2010,02,25,12,39,10.40
2010,02,25,12,40,10.40
2010,02,25,12,41,10.50
2010,02,25,12,42,10.50
2010,02,25,12,43,10.50
2010,02,25,12,44,10.50
2010,02,25,12,45,10.50
2010,02,25,12,46,10.40
2010,02,25,12,47,10.40
2010,02,25,12,48,10.40
2010,02,25,12,49,10.40
2010,02,25,12,50,10.40
2010,02,25,12,51,10.30
2010,02,25,12,52,10.30
2010,02,25,12,53,10.30
2010,02,25,12,54,10.20
2010,02,25,12,55,10.20
2010,02,25,12,56,10.10
2010,02,25,12,57,10.10
2010,02,25,12,58,10.10
2010,02,25,12,59,10.10
2010,02,25,13,00,10.10
2010,02,25,13,01,10.10
2010,02,25,13,02,10.10
2010,02,25,13,03,10.10
2010,02,25,13,04,10.10
2010,02,25,13,05,10.10
2010,02,25,13,06,10.10
2010,02,25,13,07,10.00
2010,02,25,13,08,10.00
2010,02,25,13,09,10.00
2010,02,25,13,10,9.90
2010,02,25,13,11,9.90
2010,02,25,13,12,9.90
2010,02,25,13,13,9.90
2010,02,25,13,14,9.90
2010,02,25,13,15,9.90
2010,02,25,13,16,9.90
2010,02,25,13,17,9.90
2010,02,25,13,18,9.90
2010,02,25,13,19,9.90
2010,02,25,13,20,10.00
2010,02,25,13,21,10.00
2010,02,25,13,22,10.00
2010,02,25,13,23,10.00
2010,02,25,13,24,10.10
2010,02,25,13,25,10.10
2010,02,25,13,26,10.20
2010,02,25,13,27,10.20
2010,02,25,13,28,10.30
2010,02,25,13,29,10.30
2010,02,25,13,30,10.40
2010,02,25,13,31,10.50
2010,02,25,13,32,10.60
2010,02,25,13,33,10.60
2010,02,25,13,34,10.70
2010,02,25,13,35,10.70
2010,02,25,13,36,10.70
2010,02,25,13,37,10.80
2010,02,25,13,38,10.80
2010,02,25,13,39,10.80
2010,02,25,13,40,10.80
2010,02,25,13,41,10.90
2010,02,25,13,42,10.90
2010,02,25,13,43,10.90
2010,02,25,13,44,10.80
2010,02,25,13,45,10.90
2010,02,25,13,46,10.90
2010,02,25,13,47,10.90
2010,02,25,13,48,10.90
2010,02,25,13,49,10.90
2010,02,25,13,50,11.00
2010,02,25,13,51,11.00
2010,02,25,13,52,10.90
2010,02,25,13,53,10.90
2010,02,25,13,54,10.90
2010,02,25,13,55,10.90
2010,02,25,13,56,10.80
2010,02,25,13,57,10.80
2010,02,25,13,58,10.80
2010,02,25,13,59,10.80
2010,02,25,14,00,10.80
2010,02,25,14,01,10.70
2010,02,25,14,02,10.70
2010,02,25,14,03,10.70
2010,02,25,14,04,10.60
2010,02,25,14,05,10.60
2010,02,25,14,06,10.60
2010,02,25,14,07,10.60
2010,02,25,14,08,10.50
2010,02,25,14,09,10.40
2010,02,25,14,10,10.40
2010,02,25,14,11,10.30
2010,02,25,14,12,10.30
2010,02,25,14,13,10.20
2010,02,25,14,14,10.20
2010,02,25,14,15,10.20
2010,02,25,14,16,10.20
2010,02,25,14,17,10.10
2010,02,25,14,18,10.10
2010,02,25,14,19,10.10
2010,02,25,14,20,10.00
2010,02,25,14,21,10.00
2010,02,25,14,22,10.00
2010,02,25,14,23,10.00
2010,02,25,14,24,10.00
2010,02,25,14,25,10.00
2010,02,25,14,26,10.00
2010,02,25,14,27,10.00
2010,02,25,14,28,10.00
2010,02,25,14,29,9.90
2010,02,25,14,30,9.90
2010,02,25,14,31,9.90
2010,02,25,14,32,9.90
2010,02,25,14,33,9.90
2010,02,25,14,34,9.80
2010,02,25,14,35,9.80
2010,02,25,14,36,9.80
2010,02,25,14,37,9.80
2010,02,25,14,38,9.80
2010,02,25,14,39,9.80
2010,02,25,14,40,9.80
2010,02,25,14,41,9.80
2010,02,25,14,42,9.90
2010,02,25,14,43,9.90
2010,02,25,14,44,10.00
2010,02,25,14,45,10.10
2010,02,25,14,46,10.10
2010,02,25,14,47,10.20
2010,02,25,14,48,10.20
2010,02,25,14,49,10.30
2010,02,25,14,50,10.20
2010,02,25,14,51,10.20
2010,02,25,14,52,10.20
2010,02,25,14,53,10.20
2010,02,25,14,54,10.20
2010,02,25,14,55,10.20
2010,02,25,14,56,10.30
2010,02,25,14,57,10.30
2010,02,25,14,58,10.30
2010,02,25,14,59,10.40
2010,02,25,15,00,10.50
2010,02,25,15,01,10.50
2010,02,25,15,02,10.50
2010,02,25,15,03,10.50
2010,02,25,15,04,10.50
2010,02,25,15,05,10.40
2010,02,25,15,06,10.30
2010,02,25,15,07,10.30
2010,02,25,15,08,10.20
2010,02,25,15,09,10.20
2010,02,25,15,10,10.10
2010,02,25,15,11,10.00
2010,02,25,15,12,9.90
2010,02,25,15,13,9.90
2010,02,25,15,14,9.80
2010,02,25,15,15,9.70
2010,02,25,15,16,9.70
2010,02,25,15,17,9.60
2010,02,25,15,18,9.60
2010,02,25,15,19,9.50
2010,02,25,15,20,9.50
2010,02,25,15,21,9.50
2010,02,25,15,22,9.50
2010,02,25,15,23,9.40
2010,02,25,15,24,9.40
2010,02,25,15,25,9.40
2010,02,25,15,26,9.40
2010,02,25,15,27,9.40
2010,02,25,15,28,9.30
2010,02,25,15,29,9.30
2010,02,25,15,30,9.30
2010,02,25,15,31,9.30
2010,02,25,15,32,9.30
2010,02,25,15,33,9.20
2010,02,25,15,34,9.20
2010,02,25,15,35,9.10
2010,02,25,15,36,9.10
2010,02,25,15,37,9.00
2010,02,25,15,38,9.00
2010,02,25,15,39,8.90
2010,02,25,15,40,8.90
2010,02,25,15,41,8.90
2010,02,25,15,42,8.80
2010,02,25,15,43,8.80
2010,02,25,15,44,8.80
2010,02,25,15,45,8.80
2010,02,25,15,46,8.70
2010,02,25,15,47,8.70
2010,02,25,15,48,8.70
2010,02,25,15,49,8.60
2010,02,25,15,50,8.60
2010,02,25,15,51,8.60
2010,02,25,15,52,8.60
2010,02,25,15,53,8.60
2010,02,25,15,54,8.60
2010,02,25,15,55,8.60
2010,02,25,15,56,8.60
2010,02,25,15,57,8.60
2010,02,25,15,58,8.60
2010,02,25,15,59,8.60
2010,02,25,16,00,8.60
2010,02,25,16,01,8.60
2010,02,25,16,02,8.60
2010,02,25,16,03,8.60
2010,02,25,16,04,8.70
2010,02,25,16,05,8.70
2010,02,25,16,06,8.70
2010,02,25,16,07,8.70
2010,02,25,16,08,8.70
2010,02,25,16,09,8.70
2010,02,25,16,10,8.70
2010,02,25,16,11,8.70
2010,02,25,16,12,8.70
2010,02,25,16,13,8.70
2010,02,25,16,14,8.70
2010,02,25,16,15,8.70
2010,02,25,16,16,8.80
2010,02,25,16,17,8.80
2010,02,25,16,18,8.70
2010,02,25,16,19,8.70
2010,02,25,16,20,8.80
2010,02,25,16,21,8.80
2010,02,25,16,22,8.70
2010,02,25,16,23,8.70
2010,02,25,16,24,8.70
2010,02,25,16,25,8.70
2010,02,25,16,26,8.70
2010,02,25,16,27,8.70
2010,02,25,16,28,8.70
2010,02,25,16,29,8.70
2010,02,25,16,30,8.70
2010,02,25,16,31,8.70
2010,02,25,16,32,8.70
2010,02,25,16,33,8.70
2010,02,25,16,34,8.70
2010,02,25,16,35,8.70
2010,02,25,16,36,8.70
2010,02,25,16,37,8.70
2010,02,25,16,38,8.70
2010,02,25,16,39,8.70
2010,02,25,16,40,8.70
2010,02,25,16,41,8.70
2010,02,25,16,42,8.70
2010,02,25,16,43,8.60
2010,02,25,16,44,8.60
2010,02,25,16,45,8.60
2010,02,25,16,46,8.60
2010,02,25,16,47,8.60
2010,02,25,16,48,8.60
2010,02,25,16,49,8.60
2010,02,25,16,50,8.60
2010,02,25,16,51,8.60
2010,02,25,16,52,8.60
2010,02,25,16,53,8.60
2010,02,25,16,54,8.60
2010,02,25,16,55,8.60
2010,02,25,16,56,8.60
2010,02,25,16,57,8.60
2010,02,25,16,58,8.60
2010,02,25,16,59,8.60
2010,02,25,17,00,8.60
2010,02,25,17,01,8.60
2010,02,25,17,02,8.60
2010,02,25,17,03,8.60
2010,02,25,17,04,8.60
2010,02,25,17,05,8.60
2010,02,25,17,06,8.60
2010,02,25,17,07,8.60
2010,02,25,17,08,8.60
2010,02,25,17,09,8.60
2010,02,25,17,10,8.60
2010,02,25,17,11,8.60
2010,02,25,17,12,8.60
2010,02,25,17,13,8.60
2010,02,25,17,14,8.60
2010,02,25,17,15,8.60
2010,02,25,17,16,8.60
2010,02,25,17,17,8.60
2010,02,25,17,18,8.60
2010,02,25,17,19,8.60
2010,02,25,17,20,8.60
2010,02,25,17,21,8.60
2010,02,25,17,22,8.50
2010,02,25,17,23,8.50
2010,02,25,17,24,8.50
2010,02,25,17,25,8.50
2010,02,25,17,26,8.50
2010,02,25,17,27,8.50
2010,02,25,17,28,8.50
2010,02,25,17,29,8.50
2010,02,25,17,30,8.40
2010,02,25,17,31,8.40
2010,02,25,17,32,8.40
2010,02,25,17,33,8.40
2010,02,25,17,34,8.40
2010,02,25,17,35,8.40
2010,02,25,17,36,8.40
2010,02,25,17,37,8.40
2010,02,25,17,38,8.40
2010,02,25,17,39,8.40
2010,02,25,17,40,8.40
2010,02,25,17,41,8.30
2010,02,25,17,42,8.30
2010,02,25,17,43,8.30
2010,02,25,17,44,8.30
2010,02,25,17,45,8.30
2010,02,25,17,46,8.30
2010,02,25,17,47,8.30
2010,02,25,17,48,8.30
2010,02,25,17,49,8.30
2010,02,25,17,50,8.30
2010,02,25,17,51,8.30
2010,02,25,17,52,8.20
2010,02,25,17,53,8.20
2010,02,25,17,54,8.20
2010,02,25,17,55,8.20
2010,02,25,17,56,8.20
2010,02,25,17,57,8.20
2010,02,25,17,58,8.20
2010,02,25,17,59,8.20